sat.trackr.live / text

‹ back to catalog

STARLINK-32130

NORAD 60585 · 2024-150C

PAYLOAD ACTIVE UNKNOWN

§ Identity

Operator
Country
US
Launch date
2024-08-20
Launch site
AFETR
Launch vehicle
Mass (kg)
RCS (m²)

Purposes: comms

External: N2YO · Heavens-Above · Gunter

§ Orbital elements

Epoch: 2026-09-21T20:45:27.270144Z

Period
93.85 min
Inclination
53.1612°
Eccentricity
0.0001367
Mean motion
15.34389600 rev/d
Perigee alt
461.8 km
Apogee alt
463.7 km
Semi-major
6,840.9 km
B*
2.3493e-5
RAAN
115.3212°
Arg perigee
94.6245°
Mean anomaly
265.4914°
Rev number
11,800

§ Raw data

STARLINK-321301 60585U 24150C   26264.86489896  .00000417  00000+0  23493-4 0  99902 60585  53.1612 115.3212 0001367  94.6245 265.4914 15.34389600118006

JSON: /api/v1/satellites/60585 · /tle

For live sub-satellite position, see the globe view (requires WebGL).

§ Visibility from observer

Set your observer location to see the next 7 days of passes ≥ 10°. The values pass through the URL so the page stays shareable.

No JS? Fill the form by hand. The geolocation button needs JavaScript.